Time,TemperatureF,DewpointF,PressureIn,WindDirection,WindDirectionDegrees,WindSpeedMPH,WindSpeedGustMPH,Humidity,HourlyPrecipIn,Conditions,Clouds,dailyrainin,SoftwareType,DateUTC
2013-04-20 00:00:00,54.0,39.5,29.74,NW,315,8.7,8.7,58,0.13,,---,0.00,VWS V14.01,2013-04-20 04:00:00,
2013-04-20 00:01:00,54.0,41.2,29.74,NNW,338,4.9,8.7,62,0.13,,---,0.00,VWS V14.01,2013-04-20 04:01:00,
2013-04-20 00:02:00,54.0,41.2,29.74,North,0,7.2,8.7,62,0.13,,---,0.00,VWS V14.01,2013-04-20 04:02:00,
2013-04-20 00:04:00,54.1,41.0,29.74,NW,315,3.1,8.7,61,0.13,,---,0.00,VWS V14.01,2013-04-20 04:04:00,
2013-04-20 00:09:00,54.0,40.0,29.74,NW,315,4.0,7.6,59,0.12,,---,0.04,VWS V14.01,2013-04-20 04:09:00,
2013-04-20 00:10:00,54.1,41.4,29.74,WNW,292,4.7,8.7,62,0.13,,---,0.00,VWS V14.01,2013-04-20 04:10:00,
2013-04-20 00:14:00,54.1,38.3,29.74,West,270,2.5,9.2,55,0.12,,---,0.04,VWS V14.01,2013-04-20 04:14:00,
2013-04-20 00:19:00,54.1,37.9,29.74,West,270,4.0,7.6,54,0.08,,---,0.04,VWS V14.01,2013-04-20 04:19:00,
2013-04-20 00:20:00,54.1,38.3,29.74,WNW,292,3.6,9.2,55,0.12,,---,0.04,VWS V14.01,2013-04-20 04:20:00,
2013-04-20 00:24:00,54.1,38.3,29.74,NW,315,5.6,7.6,55,0.08,,---,0.04,VWS V14.01,2013-04-20 04:24:00,
2013-04-20 00:29:00,54.1,38.3,29.74,NW,315,3.1,7.6,55,0.08,,---,0.04,VWS V14.01,2013-04-20 04:29:00,
2013-04-20 00:30:00,54.1,38.3,29.74,NW,315,5.4,7.6,55,0.08,,---,0.04,VWS V14.01,2013-04-20 04:30:00,
2013-04-20 00:34:00,54.1,39.7,29.74,NW,315,4.9,7.6,58,0.08,,---,0.04,VWS V14.01,2013-04-20 04:34:00,
2013-04-20 00:39:00,54.1,39.7,29.74,NNW,338,2.9,8.7,58,0.08,,---,0.04,VWS V14.01,2013-04-20 04:39:00,
2013-04-20 00:40:00,54.1,39.7,29.74,NNW,338,6.0,7.8,58,0.08,,---,0.04,VWS V14.01,2013-04-20 04:40:00,
2013-04-20 00:44:00,54.1,41.4,29.76,WNW,292,2.5,8.7,62,0.08,,---,0.04,VWS V14.01,2013-04-20 04:44:00,
2013-04-20 00:49:00,54.0,41.2,29.76,NNW,338,4.0,7.6,62,0.04,,---,0.04,VWS V14.01,2013-04-20 04:49:00,
2013-04-20 00:50:00,54.1,41.4,29.76,WNW,292,3.8,8.7,62,0.08,,---,0.04,VWS V14.01,2013-04-20 04:50:00,
2013-04-20 00:54:00,53.8,40.7,29.76,NW,315,3.8,7.6,61,0.04,,---,0.04,VWS V14.01,2013-04-20 04:54:00,
2013-04-20 00:59:00,53.1,38.2,29.74,NNW,338,2.7,8.5,57,0.08,,---,0.08,VWS V14.01,2013-04-20 04:59:00,
2013-04-20 01:00:00,53.4,40.3,29.76,NW,315,5.6,7.6,61,0.08,,---,0.08,VWS V14.01,2013-04-20 05:00:00,
2013-04-20 01:04:00,52.9,38.1,29.74,NW,315,3.4,8.5,57,0.08,,---,0.08,VWS V14.01,2013-04-20 05:04:00,
2013-04-20 01:10:00,52.2,35.6,29.74,NNE,22,5.8,6.5,53,0.08,,---,0.08,VWS V14.01,2013-04-20 05:10:00,
2013-04-20 01:15:00,52.0,34.4,29.74,NNW,338,5.6,7.8,51,0.08,,---,0.08,VWS V14.01,2013-04-20 05:15:00,
2013-04-20 01:20:00,51.8,33.8,29.74,WNW,292,3.1,7.8,50,0.04,,---,0.08,VWS V14.01,2013-04-20 05:20:00,
2013-04-20 01:25:00,51.3,31.2,29.74,NNE,22,3.8,9.4,46,0.04,,---,0.08,VWS V14.01,2013-04-20 05:25:00,
2013-04-20 01:30:00,51.1,30.0,29.71,NNW,338,2.5,11.0,44,0.04,,---,0.08,VWS V14.01,2013-04-20 05:30:00,
2013-04-20 01:35:00,50.9,29.8,29.71,NW,315,2.0,11.0,44,0.04,,---,0.08,VWS V14.01,2013-04-20 05:35:00,
2013-04-20 01:40:00,50.7,31.2,29.71,NW,315,3.6,5.4,47,0.04,,---,0.08,VWS V14.01,2013-04-20 05:40:00,
2013-04-20 01:45:00,50.2,29.1,29.76,WNW,292,3.8,5.4,44,0.09,,---,0.13,VWS V14.01,2013-04-20 05:45:00,
2013-04-20 01:50:00,50.2,30.8,29.76,SE,135,7.4,7.4,47,0.09,,---,0.13,VWS V14.01,2013-04-20 05:50:00,
2013-04-20 01:55:00,50.0,30.6,29.76,NNW,338,2.5,4.9,47,0.05,,---,0.13,VWS V14.01,2013-04-20 05:55:00,
2013-04-20 02:00:00,49.6,30.2,29.76,West,270,6.5,8.5,47,0.05,,---,0.13,VWS V14.01,2013-04-20 06:00:00,
2013-04-20 02:05:00,49.5,29.6,29.76,NW,315,8.7,9.6,46,0.05,,---,0.13,VWS V14.01,2013-04-20 06:05:00,
2013-04-20 02:10:00,49.3,29.9,29.76,West,270,3.8,9.6,47,0.05,,---,0.13,VWS V14.01,2013-04-20 06:10:00,
2013-04-20 02:15:00,49.1,29.8,29.74,NNW,338,5.6,5.6,47,0.05,,---,0.13,VWS V14.01,2013-04-20 06:15:00,
2013-04-20 02:20:00,49.1,30.3,29.74,NNW,338,3.8,7.4,48,0.05,,---,0.13,VWS V14.01,2013-04-20 06:20:00,
2013-04-20 02:26:00,48.9,30.6,29.74,WNW,292,2.9,3.1,49,0.05,,---,0.13,VWS V14.01,2013-04-20 06:26:00,
2013-04-20 02:30:00,48.9,30.6,29.74,NW,315,3.1,7.4,49,0.05,,---,0.13,VWS V14.01,2013-04-20 06:30:00,
2013-04-20 02:31:00,48.9,31.1,29.76,NNW,338,6.0,7.6,50,0.05,,---,0.13,VWS V14.01,2013-04-20 06:31:00,
2013-04-20 02:36:00,48.9,31.6,29.76,NNW,338,3.4,3.6,51,0.09,,---,0.17,VWS V14.01,2013-04-20 06:36:00,
2013-04-20 02:40:00,48.9,31.1,29.76,NW,315,2.9,7.6,50,0.05,,---,0.13,VWS V14.01,2013-04-20 06:40:00,
2013-04-20 02:41:00,48.7,31.9,29.76,North,0,4.0,5.6,52,0.09,,---,0.17,VWS V14.01,2013-04-20 06:41:00,
2013-04-20 02:46:00,48.9,33.0,29.79,NNW,338,3.8,4.7,54,0.09,,---,0.17,VWS V14.01,2013-04-20 06:46:00,
2013-04-20 02:50:00,48.9,32.6,29.80,WNW,292,4.0,5.8,53,0.09,,---,0.17,VWS V14.01,2013-04-20 06:50:00,
2013-04-20 02:51:00,48.9,33.5,29.79,NW,315,2.7,4.7,55,0.09,,---,0.17,VWS V14.01,2013-04-20 06:51:00,
2013-04-20 02:56:00,48.9,34.4,29.79,NW,315,1.6,5.4,57,0.04,,---,0.17,VWS V14.01,2013-04-20 06:56:00,
2013-04-20 03:00:00,48.9,34.4,29.80,West,270,5.4,5.4,57,0.09,,---,0.17,VWS V14.01,2013-04-20 07:00:00,
2013-04-20 03:01:00,48.9,35.2,29.79,NW,315,3.1,5.4,59,0.04,,---,0.17,VWS V14.01,2013-04-20 07:01:00,
2013-04-20 03:06:00,48.9,35.7,29.79,NNW,338,2.0,2.7,60,0.04,,---,0.17,VWS V14.01,2013-04-20 07:06:00,
2013-04-20 03:10:00,48.9,35.7,29.80,NW,315,2.7,5.4,60,0.04,,---,0.17,VWS V14.01,2013-04-20 07:10:00,
2013-04-20 03:11:00,48.9,35.2,29.79,WNW,292,5.8,7.2,59,0.04,,---,0.17,VWS V14.01,2013-04-20 07:11:00,
2013-04-20 03:16:00,48.7,33.3,29.79,WNW,292,3.8,5.4,55,0.04,,---,0.17,VWS V14.01,2013-04-20 07:16:00,
2013-04-20 03:20:00,48.7,33.3,29.80,WSW,248,4.3,8.5,55,0.04,,---,0.17,VWS V14.01,2013-04-20 07:20:00,
2013-04-20 03:21:00,48.7,32.8,29.79,WNW,292,5.6,7.4,54,0.04,,---,0.17,VWS V14.01,2013-04-20 07:21:00,
2013-04-20 03:27:00,48.4,30.6,29.79,North,0,4.9,8.5,50,0.04,,---,0.17,VWS V14.01,2013-04-20 07:27:00,
2013-04-20 03:30:00,48.6,32.2,29.80,NNW,338,4.3,7.4,53,0.04,,---,0.17,VWS V14.01,2013-04-20 07:30:00,
2013-04-20 03:32:00,48.4,29.1,29.79,NW,315,5.8,8.5,47,0.04,,---,0.17,VWS V14.01,2013-04-20 07:32:00,
2013-04-20 03:37:00,48.4,29.1,29.79,NNW,338,3.8,5.4,47,0.04,,---,0.17,VWS V14.01,2013-04-20 07:37:00,
2013-04-20 03:40:00,48.4,29.1,29.80,WNW,292,3.1,8.5,47,0.04,,---,0.17,VWS V14.01,2013-04-20 07:40:00,
2013-04-20 03:42:00,48.4,27.5,29.79,NW,315,3.1,7.6,44,0.04,,---,0.17,VWS V14.01,2013-04-20 07:42:00,
2013-04-20 03:47:00,48.2,26.8,29.79,North,0,4.9,4.9,43,0.00,,---,0.17,VWS V14.01,2013-04-20 07:47:00,
2013-04-20 03:50:00,48.4,28.0,29.80,NW,315,3.1,7.6,45,0.04,,---,0.17,VWS V14.01,2013-04-20 07:50:00,
2013-04-20 03:52:00,48.2,25.6,29.79,West,270,4.0,8.1,41,0.00,,---,0.17,VWS V14.01,2013-04-20 07:52:00,
2013-04-20 03:57:00,48.0,24.9,29.79,North,0,2.9,4.7,40,0.00,,---,0.17,VWS V14.01,2013-04-20 07:57:00,
2013-04-20 04:00:00,48.0,25.5,29.80,West,270,3.1,8.1,41,0.00,,---,0.17,VWS V14.01,2013-04-20 08:00:00,
2013-04-20 04:02:00,48.0,24.9,29.79,NW,315,7.8,7.8,40,0.00,,---,0.17,VWS V14.01,2013-04-20 08:02:00,
2013-04-20 04:07:00,48.0,24.9,29.79,WNW,292,5.4,5.4,40,0.00,,---,0.17,VWS V14.01,2013-04-20 08:07:00,
2013-04-20 04:10:00,48.0,24.3,29.80,WNW,292,2.0,8.5,39,0.00,,---,0.17,VWS V14.01,2013-04-20 08:10:00,
2013-04-20 04:12:00,47.8,24.7,29.79,NW,315,6.5,7.4,40,0.00,,---,0.17,VWS V14.01,2013-04-20 08:12:00,
2013-04-20 04:17:00,47.8,24.1,29.82,NW,315,4.0,4.3,39,0.00,,---,0.17,VWS V14.01,2013-04-20 08:17:00,
2013-04-20 04:20:00,47.8,24.1,29.82,NW,315,3.6,7.4,39,0.00,,---,0.17,VWS V14.01,2013-04-20 08:20:00,
2013-04-20 04:22:00,47.8,24.1,29.82,West,270,2.7,5.8,39,0.00,,---,0.17,VWS V14.01,2013-04-20 08:22:00,
2013-04-20 04:27:00,47.8,24.7,29.82,North,0,2.5,4.7,40,0.00,,---,0.17,VWS V14.01,2013-04-20 08:27:00,
2013-04-20 04:30:00,47.8,24.1,29.82,West,270,2.9,5.8,39,0.00,,---,0.17,VWS V14.01,2013-04-20 08:30:00,
2013-04-20 04:32:00,47.8,24.7,29.82,WNW,292,2.9,4.7,40,0.00,,---,0.17,VWS V14.01,2013-04-20 08:32:00,
2013-04-20 04:38:00,47.7,23.3,29.82,NW,315,3.1,7.2,38,0.00,,---,0.17,VWS V14.01,2013-04-20 08:38:00,
2013-04-20 04:40:00,47.7,23.9,29.82,West,270,2.5,6.0,39,0.00,,---,0.17,VWS V14.01,2013-04-20 08:40:00,
2013-04-20 04:43:00,47.7,23.9,29.82,West,270,3.4,7.2,39,0.00,,---,0.17,VWS V14.01,2013-04-20 08:43:00,
2013-04-20 04:48:00,47.7,23.3,29.85,WNW,292,3.4,4.7,38,0.00,,---,0.17,VWS V14.01,2013-04-20 08:48:00,
2013-04-20 04:50:00,47.7,23.9,29.85,West,270,4.0,7.2,39,0.00,,---,0.17,VWS V14.01,2013-04-20 08:50:00,
2013-04-20 04:53:00,47.7,23.3,29.85,NW,315,2.9,8.5,38,0.00,,---,0.17,VWS V14.01,2013-04-20 08:53:00,
2013-04-20 04:58:00,47.7,23.3,29.85,WNW,292,3.1,5.4,38,0.00,,---,0.17,VWS V14.01,2013-04-20 08:58:00,
2013-04-20 05:00:00,47.7,23.3,29.85,NW,315,5.4,8.5,38,0.00,,---,0.17,VWS V14.01,2013-04-20 09:00:00,
2013-04-20 05:03:00,47.7,23.3,29.85,NW,315,2.5,5.4,38,0.00,,---,0.17,VWS V14.01,2013-04-20 09:03:00,
2013-04-20 05:08:00,47.7,23.3,29.85,SSW,202,2.9,4.3,38,0.00,,---,0.17,VWS V14.01,2013-04-20 09:08:00,
2013-04-20 05:10:00,47.7,23.3,29.85,West,270,2.7,5.4,38,0.00,,---,0.17,VWS V14.01,2013-04-20 09:10:00,
2013-04-20 05:13:00,47.7,22.7,29.85,WNW,292,3.8,7.8,37,0.00,,---,0.17,VWS V14.01,2013-04-20 09:13:00,
2013-04-20 05:18:00,47.5,23.2,29.88,West,270,4.0,4.0,38,0.00,,---,0.17,VWS V14.01,2013-04-20 09:18:00,
2013-04-20 05:20:00,47.7,23.3,29.88,WNW,292,2.0,7.8,38,0.00,,---,0.17,VWS V14.01,2013-04-20 09:20:00,
2013-04-20 05:23:00,47.5,22.5,29.88,North,0,6.0,6.0,37,0.00,,---,0.17,VWS V14.01,2013-04-20 09:23:00,
2013-04-20 05:28:00,47.7,22.7,29.88,NW,315,3.1,3.8,37,0.00,,---,0.17,VWS V14.01,2013-04-20 09:28:00,
2013-04-20 05:30:00,47.7,22.7,29.88,West,270,3.1,6.0,37,0.00,,---,0.17,VWS V14.01,2013-04-20 09:30:00,
2013-04-20 05:33:00,47.7,22.0,29.85,WNW,292,6.0,6.0,36,0.00,,---,0.17,VWS V14.01,2013-04-20 09:33:00,
2013-04-20 05:38:00,47.8,22.2,29.85,NW,315,2.7,7.2,36,0.00,,---,0.17,VWS V14.01,2013-04-20 09:38:00,
2013-04-20 05:40:00,47.7,22.0,29.85,WNW,292,2.7,6.0,36,0.00,,---,0.17,VWS V14.01,2013-04-20 09:40:00,
2013-04-20 05:44:00,47.8,20.1,29.85,WNW,292,3.6,7.2,33,0.00,,---,0.17,VWS V14.01,2013-04-20 09:44:00,
2013-04-20 05:49:00,47.8,20.1,29.85,NNW,338,3.4,4.3,33,0.00,,---,0.17,VWS V14.01,2013-04-20 09:49:00,
2013-04-20 05:50:00,47.8,20.1,29.85,NW,315,3.8,7.2,33,0.00,,---,0.17,VWS V14.01,2013-04-20 09:50:00,
2013-04-20 05:54:00,48.0,18.8,29.85,NW,315,2.9,6.3,31,0.00,,---,0.17,VWS V14.01,2013-04-20 09:54:00,
2013-04-20 05:59:00,48.0,18.8,29.85,NW,315,3.6,5.4,31,0.00,,---,0.17,VWS V14.01,2013-04-20 09:59:00,
2013-04-20 06:00:00,48.0,18.8,29.85,SW,225,4.0,6.3,31,0.00,,---,0.17,VWS V14.01,2013-04-20 10:00:00,
2013-04-20 06:04:00,48.0,18.8,29.85,West,270,2.5,7.2,31,0.00,,---,0.17,VWS V14.01,2013-04-20 10:04:00,
2013-04-20 06:09:00,47.8,17.9,29.85,WNW,292,4.0,4.9,30,0.00,,---,0.17,VWS V14.01,2013-04-20 10:09:00,
2013-04-20 06:10:00,48.0,18.8,29.85,WSW,248,2.9,7.2,31,0.00,,---,0.17,VWS V14.01,2013-04-20 10:10:00,
2013-04-20 06:14:00,48.0,17.3,29.88,NW,315,3.8,6.7,29,0.00,,---,0.17,VWS V14.01,2013-04-20 10:14:00,
2013-04-20 06:19:00,47.8,17.1,29.88,West,270,7.8,8.5,29,0.00,,---,0.17,VWS V14.01,2013-04-20 10:19:00,
2013-04-20 06:20:00,48.0,17.3,29.88,NW,315,3.8,6.7,29,0.00,,---,0.17,VWS V14.01,2013-04-20 10:20:00,
2013-04-20 06:24:00,47.8,17.1,29.88,NW,315,3.1,8.5,29,0.00,,---,0.17,VWS V14.01,2013-04-20 10:24:00,
2013-04-20 06:29:00,47.8,17.1,29.88,NW,315,2.0,4.3,29,0.00,,---,0.17,VWS V14.01,2013-04-20 10:29:00,
2013-04-20 06:30:00,47.8,17.1,29.88,WNW,292,2.5,8.5,29,0.00,,---,0.17,VWS V14.01,2013-04-20 10:30:00,
2013-04-20 06:34:00,47.8,17.1,29.88,NNW,338,3.1,4.7,29,0.00,,---,0.17,VWS V14.01,2013-04-20 10:34:00,
2013-04-20 06:39:00,47.8,16.3,29.88,WNW,292,2.7,4.3,28,0.00,,---,0.17,VWS V14.01,2013-04-20 10:39:00,
2013-04-20 06:40:00,47.8,17.1,29.88,NW,315,1.3,4.7,29,0.00,,---,0.17,VWS V14.01,2013-04-20 10:40:00,
2013-04-20 06:44:00,47.8,16.3,29.91,North,0,1.6,8.1,28,0.00,,---,0.17,VWS V14.01,2013-04-20 10:44:00,
2013-04-20 06:50:00,47.8,16.3,29.91,WNW,292,4.3,5.8,28,0.00,,---,0.17,VWS V14.01,2013-04-20 10:50:00,
2013-04-20 06:55:00,47.7,16.2,29.91,WNW,292,1.3,5.8,28,0.00,,---,0.00,VWS V14.01,2013-04-20 10:55:00,
2013-04-20 07:00:00,47.7,16.2,29.91,NW,315,2.7,3.4,28,0.00,,---,0.17,VWS V14.01,2013-04-20 11:00:00,
2013-04-20 07:05:00,47.7,16.2,29.91,NW,315,2.7,4.0,28,0.00,,---,0.17,VWS V14.01,2013-04-20 11:05:00,
2013-04-20 07:10:00,47.7,16.2,29.91,WNW,292,2.9,6.3,28,0.00,,---,0.17,VWS V14.01,2013-04-20 11:10:00,
2013-04-20 07:15:00,47.8,16.3,29.91,WNW,292,2.0,2.5,28,0.00,,---,0.17,VWS V14.01,2013-04-20 11:15:00,
2013-04-20 07:20:00,47.7,16.2,29.91,WNW,292,1.3,4.3,28,0.00,,---,0.17,VWS V14.01,2013-04-20 11:20:00,
2013-04-20 07:25:00,47.7,16.2,29.91,WNW,292,2.5,3.4,28,0.00,,---,0.17,VWS V14.01,2013-04-20 11:25:00,
2013-04-20 07:30:00,47.7,16.2,29.88,NW,315,3.6,3.8,28,0.00,,---,0.17,VWS V14.01,2013-04-20 11:30:00,
2013-04-20 07:35:00,47.8,15.5,29.88,NW,315,2.0,4.7,27,0.00,,---,0.17,VWS V14.01,2013-04-20 11:35:00,
2013-04-20 07:40:00,48.2,15.8,29.88,NW,315,3.8,4.9,27,0.00,,---,0.17,VWS V14.01,2013-04-20 11:40:00,
2013-04-20 07:45:00,48.6,16.1,29.91,WNW,292,5.8,7.4,27,0.00,,---,0.17,VWS V14.01,2013-04-20 11:45:00,
2013-04-20 07:50:00,48.9,16.4,29.91,WNW,292,7.4,7.4,27,0.00,,---,0.17,VWS V14.01,2013-04-20 11:50:00,
2013-04-20 07:56:00,49.1,15.7,29.91,WNW,292,4.0,6.3,26,0.00,,---,0.17,VWS V14.01,2013-04-20 11:56:00,
2013-04-20 08:00:00,49.1,15.7,29.91,NNW,338,3.4,11.0,26,0.00,,---,0.17,VWS V14.01,2013-04-20 12:00:00,
2013-04-20 08:01:00,49.1,15.7,29.91,NW,315,5.4,8.7,26,0.00,,---,0.17,VWS V14.01,2013-04-20 12:01:00,
2013-04-20 08:06:00,49.3,15.9,29.91,West,270,8.5,8.5,26,0.00,,---,0.17,VWS V14.01,2013-04-20 12:06:00,
2013-04-20 08:10:00,49.3,15.9,29.91,NW,315,3.8,8.7,26,0.00,,---,0.17,VWS V14.01,2013-04-20 12:10:00,
2013-04-20 08:11:00,49.3,14.0,29.91,NW,315,5.8,8.7,24,0.00,,---,0.17,VWS V14.01,2013-04-20 12:11:00,
2013-04-20 08:16:00,49.1,13.9,29.94,NW,315,6.5,11.0,24,0.00,,---,0.17,VWS V14.01,2013-04-20 12:16:00,
2013-04-20 08:20:00,49.1,13.9,29.94,WNW,292,8.1,8.7,24,0.00,,---,0.17,VWS V14.01,2013-04-20 12:20:00,
2013-04-20 08:21:00,49.1,13.9,29.94,WNW,292,3.6,11.0,24,0.00,,---,0.17,VWS V14.01,2013-04-20 12:21:00,
2013-04-20 08:26:00,49.3,14.0,29.94,West,270,5.4,9.8,24,0.00,,---,0.17,VWS V14.01,2013-04-20 12:26:00,
2013-04-20 08:30:00,49.3,14.0,29.94,NW,315,4.0,11.0,24,0.00,,---,0.17,VWS V14.01,2013-04-20 12:30:00,
2013-04-20 08:31:00,49.5,14.2,29.91,NW,315,4.3,9.8,24,0.00,,---,0.17,VWS V14.01,2013-04-20 12:31:00,
2013-04-20 08:36:00,49.5,14.2,29.91,NW,315,4.9,7.2,24,0.00,,---,0.17,VWS V14.01,2013-04-20 12:36:00,
2013-04-20 08:40:00,49.5,14.2,29.91,NNE,22,6.5,10.1,24,0.00,,---,0.17,VWS V14.01,2013-04-20 12:40:00,
2013-04-20 08:41:00,49.5,14.2,29.91,NW,315,11.4,11.4,24,0.00,,---,0.17,VWS V14.01,2013-04-20 12:41:00,
2013-04-20 08:46:00,49.5,14.2,29.94,WNW,292,3.6,8.7,24,0.00,,---,0.17,VWS V14.01,2013-04-20 12:46:00,
2013-04-20 08:50:00,49.3,14.0,29.94,NNE,22,6.0,11.4,24,0.00,,---,0.17,VWS V14.01,2013-04-20 12:50:00,
2013-04-20 08:52:00,49.1,10.9,29.94,West,270,10.1,12.8,21,0.00,,---,0.17,VWS V14.01,2013-04-20 12:52:00,
2013-04-20 08:57:00,49.1,10.9,29.94,NNW,338,6.3,10.5,21,0.00,,---,0.17,VWS V14.01,2013-04-20 12:57:00,
2013-04-20 09:00:00,49.1,10.9,29.94,WNW,292,5.6,12.8,21,0.00,,---,0.17,VWS V14.01,2013-04-20 13:00:00,
2013-04-20 09:02:00,49.1,10.9,29.94,WNW,292,5.4,15.4,21,0.00,,---,0.17,VWS V14.01,2013-04-20 13:02:00,
2013-04-20 09:07:00,48.9,10.7,29.94,NW,315,7.4,10.3,21,0.00,,---,0.17,VWS V14.01,2013-04-20 13:07:00,
2013-04-20 09:10:00,49.1,10.9,29.94,West,270,7.2,15.4,21,0.00,,---,0.17,VWS V14.01,2013-04-20 13:10:00,
2013-04-20 09:12:00,48.7,10.6,29.94,NW,315,9.8,13.0,21,0.00,,---,0.17,VWS V14.01,2013-04-20 13:12:00,
2013-04-20 09:17:00,48.9,10.7,29.94,WNW,292,10.5,10.5,21,0.00,,---,0.17,VWS V14.01,2013-04-20 13:17:00,
2013-04-20 09:20:00,48.9,10.7,29.94,West,270,10.5,13.0,21,0.00,,---,0.17,VWS V14.01,2013-04-20 13:20:00,
2013-04-20 09:22:00,49.3,11.0,29.94,NW,315,4.3,10.7,21,0.00,,---,0.17,VWS V14.01,2013-04-20 13:22:00,
2013-04-20 09:27:00,49.1,10.9,29.94,SW,225,10.3,13.0,21,0.00,,---,0.17,VWS V14.01,2013-04-20 13:27:00,
2013-04-20 09:30:00,49.3,11.0,29.94,WSW,248,5.6,10.7,21,0.00,,---,0.17,VWS V14.01,2013-04-20 13:30:00,
2013-04-20 09:32:00,48.7,10.6,29.97,WNW,292,8.1,13.0,21,0.00,,---,0.17,VWS V14.01,2013-04-20 13:32:00,
2013-04-20 09:37:00,48.7,10.6,29.97,NW,315,13.2,13.2,21,0.00,,---,0.17,VWS V14.01,2013-04-20 13:37:00,
2013-04-20 09:40:00,48.7,10.6,29.97,West,270,9.6,13.9,21,0.00,,---,0.17,VWS V14.01,2013-04-20 13:40:00,
2013-04-20 09:42:00,48.7,10.6,29.97,NW,315,7.6,13.4,21,0.00,,---,0.17,VWS V14.01,2013-04-20 13:42:00,
2013-04-20 09:47:00,48.7,10.6,29.97,NW,315,4.0,11.2,21,0.00,,---,0.17,VWS V14.01,2013-04-20 13:47:00,
2013-04-20 09:50:00,48.9,10.7,29.97,NW,315,6.3,13.4,21,0.00,,---,0.17,VWS V14.01,2013-04-20 13:50:00,
2013-04-20 09:52:00,48.7,10.6,29.97,NW,315,11.0,16.6,21,0.00,,---,0.17,VWS V14.01,2013-04-20 13:52:00,
2013-04-20 09:58:00,48.6,10.4,29.97,West,270,4.0,11.0,21,0.00,,---,0.17,VWS V14.01,2013-04-20 13:58:00,
2013-04-20 10:00:00,48.6,10.4,29.97,North,0,10.3,17.0,21,0.00,,---,0.17,VWS V14.01,2013-04-20 14:00:00,
2013-04-20 10:03:00,48.7,10.6,29.97,West,270,12.5,12.5,21,0.00,,---,0.17,VWS V14.01,2013-04-20 14:03:00,
2013-04-20 10:08:00,48.6,10.4,29.97,WNW,292,3.1,17.0,21,0.00,,---,0.17,VWS V14.01,2013-04-20 14:08:00,
2013-04-20 10:10:00,48.7,10.6,29.97,WNW,292,9.6,12.5,21,0.00,,---,0.17,VWS V14.01,2013-04-20 14:10:00,
2013-04-20 10:13:00,48.6,10.4,29.97,West,270,12.3,19.9,21,0.00,,---,0.17,VWS V14.01,2013-04-20 14:13:00,
2013-04-20 10:18:00,48.6,10.4,30.00,NE,45,6.3,16.3,21,0.00,,---,0.17,VWS V14.01,2013-04-20 14:18:00,
2013-04-20 10:20:00,48.4,10.3,30.00,NNW,338,10.5,19.9,21,0.00,,---,0.17,VWS V14.01,2013-04-20 14:20:00,
2013-04-20 10:23:00,48.7,10.6,30.00,WNW,292,12.8,16.3,21,0.00,,---,0.17,VWS V14.01,2013-04-20 14:23:00,
2013-04-20 10:28:00,48.7,10.6,30.00,West,270,4.0,14.3,21,0.00,,---,0.17,VWS V14.01,2013-04-20 14:28:00,
2013-04-20 10:30:00,48.6,10.4,30.00,ENE,68,7.2,16.3,21,0.00,,---,0.17,VWS V14.01,2013-04-20 14:30:00,
2013-04-20 10:33:00,48.7,10.6,30.00,NNE,22,5.8,14.3,21,0.00,,---,0.17,VWS V14.01,2013-04-20 14:33:00,
2013-04-20 10:38:00,48.7,10.6,30.00,NW,315,4.7,11.0,21,0.00,,---,0.17,VWS V14.01,2013-04-20 14:38:00,
2013-04-20 10:40:00,48.7,10.6,30.00,NNW,338,11.0,14.3,21,0.00,,---,0.17,VWS V14.01,2013-04-20 14:40:00,
2013-04-20 10:43:00,49.3,11.0,30.00,East,90,2.7,11.0,21,0.00,,---,0.17,VWS V14.01,2013-04-20 14:43:00,
2013-04-20 10:48:00,49.3,11.0,30.03,WNW,292,7.4,9.8,21,0.00,,---,0.17,VWS V14.01,2013-04-20 14:48:00,
2013-04-20 10:50:00,49.3,11.0,30.03,WNW,292,5.6,11.0,21,0.00,,---,0.17,VWS V14.01,2013-04-20 14:50:00,
2013-04-20 10:53:00,49.1,10.9,30.03,ENE,68,2.9,15.2,21,0.00,,---,0.17,VWS V14.01,2013-04-20 14:53:00,
2013-04-20 10:59:00,49.6,11.3,30.03,NNW,338,4.0,12.5,21,0.00,,---,0.17,VWS V14.01,2013-04-20 14:59:00,
2013-04-20 11:00:00,49.3,11.0,30.03,NNW,338,2.5,15.2,21,0.00,,---,0.17,VWS V14.01,2013-04-20 15:00:00,
2013-04-20 11:04:00,49.8,11.5,30.03,West,270,8.1,12.5,21,0.00,,---,0.17,VWS V14.01,2013-04-20 15:04:00,
2013-04-20 11:09:00,50.4,11.9,30.03,NW,315,5.4,10.7,21,0.00,,---,0.17,VWS V14.01,2013-04-20 15:09:00,
2013-04-20 11:10:00,49.8,11.5,30.03,WSW,248,10.7,12.5,21,0.00,,---,0.17,VWS V14.01,2013-04-20 15:10:00,
2013-04-20 11:14:00,50.2,11.8,30.03,WNW,292,4.3,15.4,21,0.00,,---,0.17,VWS V14.01,2013-04-20 15:14:00,
2013-04-20 11:19:00,50.2,9.5,30.03,NW,315,12.5,14.5,19,0.00,,---,0.17,VWS V14.01,2013-04-20 15:19:00,
2013-04-20 11:20:00,50.2,11.8,30.03,NW,315,4.0,15.4,21,0.00,,---,0.17,VWS V14.01,2013-04-20 15:20:00,
2013-04-20 11:24:00,50.4,9.7,30.03,NNW,338,9.8,14.5,19,0.00,,---,0.17,VWS V14.01,2013-04-20 15:24:00,
2013-04-20 11:29:00,50.5,9.8,30.03,NW,315,7.4,9.6,19,0.00,,---,0.17,VWS V14.01,2013-04-20 15:29:00,
2013-04-20 11:30:00,50.4,9.7,30.03,NW,315,3.6,14.5,19,0.00,,---,0.17,VWS V14.01,2013-04-20 15:30:00,
2013-04-20 11:34:00,50.4,9.7,30.03,West,270,4.0,10.5,19,0.00,,---,0.17,VWS V14.01,2013-04-20 15:34:00,
2013-04-20 11:39:00,51.3,10.4,30.03,WSW,248,8.1,12.8,19,0.00,,---,0.17,VWS V14.01,2013-04-20 15:39:00,
2013-04-20 11:40:00,50.5,9.8,30.03,WSW,248,3.4,10.5,19,0.00,,---,0.17,VWS V14.01,2013-04-20 15:40:00,
2013-04-20 11:44:00,51.4,10.6,30.03,WNW,292,4.9,12.8,19,0.00,,---,0.17,VWS V14.01,2013-04-20 15:44:00,
2013-04-20 11:49:00,50.7,10.0,30.03,NNW,338,4.3,13.9,19,0.00,,---,0.17,VWS V14.01,2013-04-20 15:49:00,
2013-04-20 11:50:00,51.4,10.6,30.03,WNW,292,6.3,12.8,19,0.00,,---,0.17,VWS V14.01,2013-04-20 15:50:00,
2013-04-20 11:54:00,50.7,10.0,30.03,North,0,4.9,15.2,19,0.00,,---,0.17,VWS V14.01,2013-04-20 15:54:00,
2013-04-20 11:59:00,51.6,10.7,30.03,WSW,248,6.5,10.3,19,0.00,,---,0.17,VWS V14.01,2013-04-20 15:59:00,
2013-04-20 12:00:00,51.1,10.3,30.03,WNW,292,5.4,15.2,19,0.00,,---,0.17,VWS V14.01,2013-04-20 16:00:00,
2013-04-20 12:04:00,52.3,10.1,30.03,WNW,292,3.8,11.0,18,0.00,,---,0.17,VWS V14.01,2013-04-20 16:04:00,
2013-04-20 12:10:00,52.5,10.2,30.03,WNW,292,3.8,16.1,18,0.00,,---,0.17,VWS V14.01,2013-04-20 16:10:00,
2013-04-20 12:15:00,52.5,10.2,30.03,NW,315,13.6,16.1,18,0.00,,---,0.17,VWS V14.01,2013-04-20 16:15:00,
2013-04-20 12:20:00,53.1,10.7,30.03,WNW,292,4.3,13.6,18,0.00,,---,0.17,VWS V14.01,2013-04-20 16:20:00,
2013-04-20 12:25:00,54.5,11.9,30.03,NNW,338,8.7,13.6,18,0.00,,---,0.17,VWS V14.01,2013-04-20 16:25:00,
2013-04-20 12:30:00,54.5,11.9,30.03,NNW,338,10.7,11.4,18,0.00,,---,0.17,VWS V14.01,2013-04-20 16:30:00,
2013-04-20 12:35:00,54.5,11.9,30.03,West,270,11.0,11.0,18,0.00,,---,0.17,VWS V14.01,2013-04-20 16:35:00,
2013-04-20 12:40:00,54.9,12.2,30.03,West,270,8.7,19.0,18,0.00,,---,0.17,VWS V14.01,2013-04-20 16:40:00,
2013-04-20 12:45:00,54.3,11.7,30.03,WNW,292,8.1,10.7,18,0.00,,---,0.17,VWS V14.01,2013-04-20 16:45:00,
2013-04-20 12:50:00,54.1,11.6,30.03,West,270,17.2,17.2,18,0.00,,---,0.17,VWS V14.01,2013-04-20 16:50:00,
2013-04-20 12:55:00,54.1,11.6,30.03,South,180,5.6,11.0,18,0.00,,---,0.17,VWS V14.01,2013-04-20 16:55:00,
2013-04-20 13:00:00,55.0,12.3,30.00,WNW,292,12.5,16.8,18,0.00,,---,0.17,VWS V14.01,2013-04-20 17:00:00,
2013-04-20 13:05:00,54.7,12.0,30.00,West,270,10.1,14.5,18,0.00,,---,0.17,VWS V14.01,2013-04-20 17:05:00,
2013-04-20 13:10:00,54.7,12.0,30.00,West,270,10.3,14.5,18,0.00,,---,0.17,VWS V14.01,2013-04-20 17:10:00,
2013-04-20 13:16:00,54.9,12.2,30.03,NW,315,6.0,6.5,18,0.00,,---,0.17,VWS V14.01,2013-04-20 17:16:00,
2013-04-20 13:20:00,54.7,12.0,30.03,WNW,292,6.0,14.5,18,0.00,,---,0.17,VWS V14.01,2013-04-20 17:20:00,
2013-04-20 13:21:00,55.8,11.6,30.03,WNW,292,4.9,8.5,17,0.00,,---,0.17,VWS V14.01,2013-04-20 17:21:00,
2013-04-20 13:26:00,55.8,11.6,30.03,WNW,292,13.2,13.2,17,0.00,,---,0.17,VWS V14.01,2013-04-20 17:26:00,
2013-04-20 13:30:00,55.6,11.5,30.03,WNW,292,9.8,12.8,17,0.00,,---,0.17,VWS V14.01,2013-04-20 17:30:00,
2013-04-20 13:31:00,56.3,12.1,30.00,NW,315,9.4,13.6,17,0.00,,---,0.17,VWS V14.01,2013-04-20 17:31:00,
2013-04-20 13:36:00,55.4,11.3,30.00,North,0,12.8,17.0,17,0.00,,---,0.17,VWS V14.01,2013-04-20 17:36:00,
2013-04-20 13:40:00,56.1,11.9,30.00,NW,315,17.0,17.0,17,0.00,,---,0.17,VWS V14.01,2013-04-20 17:40:00,
2013-04-20 13:41:00,55.2,12.5,30.00,West,270,12.5,17.0,18,0.00,,---,0.17,VWS V14.01,2013-04-20 17:41:00,
2013-04-20 13:46:00,54.7,12.0,30.00,NW,315,15.2,18.1,18,0.00,,---,0.17,VWS V14.01,2013-04-20 17:46:00,
2013-04-20 13:50:00,55.2,12.5,30.00,West,270,6.3,17.2,18,0.00,,---,0.17,VWS V14.01,2013-04-20 17:50:00,
2013-04-20 13:51:00,54.7,12.0,30.00,NW,315,4.9,18.1,18,0.00,,---,0.17,VWS V14.01,2013-04-20 17:51:00,
2013-04-20 13:56:00,55.2,12.5,30.00,West,270,9.8,9.8,18,0.00,,---,0.17,VWS V14.01,2013-04-20 17:56:00,
2013-04-20 14:00:00,54.9,12.2,30.00,West,270,4.3,18.1,18,0.00,,---,0.17,VWS V14.01,2013-04-20 18:00:00,
2013-04-20 14:01:00,56.1,11.9,30.03,WNW,292,12.3,13.0,17,0.04,,---,0.21,VWS V14.01,2013-04-20 18:01:00,
2013-04-20 14:06:00,56.7,12.4,30.03,West,270,10.3,15.4,17,0.04,,---,0.21,VWS V14.01,2013-04-20 18:06:00,
2013-04-20 14:10:00,56.7,12.4,30.03,ENE,68,6.0,13.0,17,0.04,,---,0.21,VWS V14.01,2013-04-20 18:10:00,
2013-04-20 14:11:00,55.2,12.5,30.03,NNW,338,8.1,15.4,18,0.04,,---,0.21,VWS V14.01,2013-04-20 18:11:00,
2013-04-20 14:17:00,56.1,11.9,30.03,WSW,248,9.6,9.6,17,0.04,,---,0.21,VWS V14.01,2013-04-20 18:17:00,
2013-04-20 14:20:00,55.4,11.3,30.03,WSW,248,4.0,15.4,17,0.04,,---,0.21,VWS V14.01,2013-04-20 18:20:00,
2013-04-20 14:22:00,56.3,12.1,30.03,West,270,12.1,14.5,17,0.08,,---,0.25,VWS V14.01,2013-04-20 18:22:00,
2013-04-20 14:27:00,56.3,12.1,30.03,WNW,292,10.1,10.1,17,0.12,,---,0.29,VWS V14.01,2013-04-20 18:27:00,
2013-04-20 14:30:00,56.3,12.1,30.03,WNW,292,3.8,14.5,17,0.08,,---,0.25,VWS V14.01,2013-04-20 18:30:00,
2013-04-20 14:32:00,55.8,11.6,30.00,NE,45,8.7,17.0,17,0.12,,---,0.29,VWS V14.01,2013-04-20 18:32:00,
2013-04-20 14:37:00,57.0,12.7,30.00,West,270,3.8,8.1,17,0.12,,---,0.29,VWS V14.01,2013-04-20 18:37:00,
2013-04-20 14:40:00,56.5,12.2,30.00,NW,315,5.4,17.0,17,0.12,,---,0.29,VWS V14.01,2013-04-20 18:40:00,
2013-04-20 14:42:00,57.2,12.8,30.00,NW,315,8.5,13.2,17,0.12,,---,0.29,VWS V14.01,2013-04-20 18:42:00,
2013-04-20 14:47:00,56.8,12.5,30.03,NNW,338,5.4,10.5,17,0.12,,---,0.29,VWS V14.01,2013-04-20 18:47:00,
2013-04-20 14:50:00,57.2,12.8,30.03,ESE,112,3.4,13.2,17,0.12,,---,0.29,VWS V14.01,2013-04-20 18:50:00,
2013-04-20 14:52:00,56.1,11.9,30.03,NNW,338,7.4,11.0,17,0.12,,---,0.29,VWS V14.01,2013-04-20 18:52:00,
2013-04-20 14:57:00,56.3,12.1,30.03,West,270,6.3,10.5,17,0.12,,---,0.29,VWS V14.01,2013-04-20 18:57:00,
2013-04-20 15:00:00,55.8,11.6,30.03,NW,315,7.4,13.0,17,0.12,,---,0.29,VWS V14.01,2013-04-20 19:00:00,
2013-04-20 15:02:00,57.6,13.1,30.00,WSW,248,3.1,16.1,17,0.12,,---,0.29,VWS V14.01,2013-04-20 19:02:00,
2013-04-20 15:07:00,57.6,13.1,30.00,NNW,338,5.4,10.7,17,0.08,,---,0.29,VWS V14.01,2013-04-20 19:07:00,
2013-04-20 15:10:00,57.4,12.9,30.00,NW,315,6.5,23.9,17,0.12,,---,0.29,VWS V14.01,2013-04-20 19:10:00,
2013-04-20 15:12:00,56.8,12.5,30.00,NW,315,8.7,15.4,17,0.08,,---,0.29,VWS V14.01,2013-04-20 19:12:00,
2013-04-20 15:17:00,57.7,13.2,30.03,NW,315,7.8,9.6,17,0.08,,---,0.29,VWS V14.01,2013-04-20 19:17:00,
2013-04-20 15:20:00,57.2,12.8,30.03,WNW,292,6.0,15.4,17,0.08,,---,0.29,VWS V14.01,2013-04-20 19:20:00,
2013-04-20 15:23:00,57.2,12.8,30.03,North,0,9.8,12.8,17,0.08,,---,0.29,VWS V14.01,2013-04-20 19:23:00,
2013-04-20 15:28:00,57.6,13.1,30.03,West,270,12.1,12.1,17,0.04,,---,0.29,VWS V14.01,2013-04-20 19:28:00,
2013-04-20 15:30:00,57.6,13.1,30.03,North,0,5.4,12.8,17,0.08,,---,0.29,VWS V14.01,2013-04-20 19:30:00,
2013-04-20 15:33:00,57.0,12.7,30.03,WNW,292,6.0,20.4,17,0.04,,---,0.29,VWS V14.01,2013-04-20 19:33:00,
2013-04-20 15:38:00,57.0,12.7,30.03,North,0,5.8,16.8,17,0.00,,---,0.29,VWS V14.01,2013-04-20 19:38:00,
2013-04-20 15:40:00,57.0,12.6,30.03,WNW,292,6.0,20.4,17,0.04,,---,0.29,VWS V14.01,2013-04-20 19:40:00,
2013-04-20 15:43:00,57.2,12.8,30.03,NW,315,6.0,16.8,17,0.00,,---,0.29,VWS V14.01,2013-04-20 19:43:00,
2013-04-20 15:48:00,57.0,12.7,30.03,NW,315,10.5,10.5,17,0.00,,---,0.29,VWS V14.01,2013-04-20 19:48:00,
2013-04-20 15:50:00,57.4,12.9,30.03,WNW,292,6.7,16.8,17,0.00,,---,0.29,VWS V14.01,2013-04-20 19:50:00,
2013-04-20 15:53:00,57.2,12.8,30.03,NW,315,5.4,12.5,17,0.00,,---,0.29,VWS V14.01,2013-04-20 19:53:00,
2013-04-20 15:58:00,57.2,12.8,30.03,NW,315,7.6,17.0,17,0.00,,---,0.29,VWS V14.01,2013-04-20 19:58:00,
2013-04-20 16:00:00,57.7,13.2,30.03,West,270,11.0,12.5,17,0.00,,---,0.29,VWS V14.01,2013-04-20 20:00:00,
2013-04-20 16:03:00,57.2,12.8,30.00,West,270,10.7,17.0,17,0.00,,---,0.29,VWS V14.01,2013-04-20 20:03:00,
2013-04-20 16:08:00,57.2,12.8,30.00,NW,315,9.0,12.8,17,0.00,,---,0.29,VWS V14.01,2013-04-20 20:08:00,
2013-04-20 16:10:00,56.8,12.5,30.00,West,270,10.3,17.0,17,0.00,,---,0.29,VWS V14.01,2013-04-20 20:10:00,
2013-04-20 16:13:00,56.7,12.4,30.00,NNW,338,2.9,25.1,17,0.00,,---,0.29,VWS V14.01,2013-04-20 20:13:00,
2013-04-20 16:18:00,56.7,12.4,30.03,West,270,9.8,11.9,17,0.00,,---,0.29,VWS V14.01,2013-04-20 20:18:00,
2013-04-20 16:20:00,56.5,12.2,30.03,WNW,292,10.5,25.1,17,0.00,,---,0.29,VWS V14.01,2013-04-20 20:20:00,
2013-04-20 16:24:00,57.9,13.4,30.03,NW,315,7.8,14.3,17,0.00,,---,0.29,VWS V14.01,2013-04-20 20:24:00,
2013-04-20 16:29:00,56.8,12.5,30.03,NW,315,7.8,8.7,17,0.00,,---,0.29,VWS V14.01,2013-04-20 20:29:00,
2013-04-20 16:30:00,57.6,13.1,30.03,West,270,8.1,14.3,17,0.00,,---,0.29,VWS V14.01,2013-04-20 20:30:00,
2013-04-20 16:34:00,56.3,12.1,30.03,WNW,292,5.6,11.9,17,0.00,,---,0.29,VWS V14.01,2013-04-20 20:34:00,
2013-04-20 16:39:00,55.9,11.8,30.03,NW,315,5.8,15.7,17,0.00,,---,0.29,VWS V14.01,2013-04-20 20:39:00,
2013-04-20 16:40:00,56.1,11.9,30.03,WNW,292,6.5,11.9,17,0.00,,---,0.29,VWS V14.01,2013-04-20 20:40:00,
2013-04-20 16:44:00,55.9,11.8,30.03,WNW,292,13.2,15.7,17,0.00,,---,0.29,VWS V14.01,2013-04-20 20:44:00,
2013-04-20 16:49:00,57.2,12.8,30.03,WNW,292,4.3,11.9,17,0.00,,---,0.29,VWS V14.01,2013-04-20 20:49:00,
2013-04-20 16:50:00,56.3,12.1,30.03,NW,315,6.3,15.7,17,0.00,,---,0.29,VWS V14.01,2013-04-20 20:50:00,
2013-04-20 16:54:00,57.2,12.8,30.03,NW,315,7.6,14.8,17,0.00,,---,0.29,VWS V14.01,2013-04-20 20:54:00,
2013-04-20 16:59:00,56.5,12.2,30.06,NW,315,5.8,17.2,17,0.00,,---,0.29,VWS V14.01,2013-04-20 20:59:00,
2013-04-20 17:00:00,57.2,12.8,30.03,NW,315,6.3,14.8,17,0.00,,---,0.29,VWS V14.01,2013-04-20 21:00:00,
2013-04-20 17:04:00,56.5,12.2,30.06,WNW,292,6.5,17.2,17,0.00,,---,0.29,VWS V14.01,2013-04-20 21:04:00,
2013-04-20 17:09:00,57.0,12.7,30.06,WNW,292,4.3,17.5,17,0.00,,---,0.29,VWS V14.01,2013-04-20 21:09:00,
2013-04-20 17:10:00,56.7,12.4,30.06,West,270,17.5,17.5,17,0.00,,---,0.29,VWS V14.01,2013-04-20 21:10:00,
2013-04-20 17:14:00,57.4,12.9,30.06,NW,315,13.0,17.5,17,0.00,,---,0.29,VWS V14.01,2013-04-20 21:14:00,
2013-04-20 17:19:00,56.8,12.5,30.06,NW,315,5.4,11.0,17,0.00,,---,0.29,VWS V14.01,2013-04-20 21:19:00,
2013-04-20 17:20:00,57.4,12.9,30.06,WNW,292,7.8,17.5,17,0.00,,---,0.29,VWS V14.01,2013-04-20 21:20:00,
2013-04-20 17:24:00,56.8,12.5,30.06,West,270,3.4,13.2,17,0.00,,---,0.29,VWS V14.01,2013-04-20 21:24:00,
2013-04-20 17:30:00,56.5,12.2,30.06,NW,315,8.1,13.0,17,0.00,,---,0.29,VWS V14.01,2013-04-20 21:30:00,
2013-04-20 17:35:00,57.0,12.7,30.06,West,270,10.5,13.0,17,0.00,,---,0.29,VWS V14.01,2013-04-20 21:35:00,
2013-04-20 17:40:00,57.0,12.7,30.06,West,270,10.7,12.3,17,0.00,,---,0.29,VWS V14.01,2013-04-20 21:40:00,
2013-04-20 17:45:00,57.6,13.1,30.09,WNW,292,4.0,12.3,17,0.00,,---,0.29,VWS V14.01,2013-04-20 21:45:00,
2013-04-20 17:50:00,56.7,12.4,30.09,WNW,292,7.8,19.0,17,0.00,,---,0.29,VWS V14.01,2013-04-20 21:50:00,
2013-04-20 17:55:00,56.7,12.4,30.09,NW,315,6.3,10.1,17,0.00,,---,0.29,VWS V14.01,2013-04-20 21:55:00,
2013-04-20 18:00:00,56.5,12.2,30.09,NW,315,5.4,12.5,17,0.00,,---,0.29,VWS V14.01,2013-04-20 22:00:00,
2013-04-20 18:05:00,56.1,11.9,30.09,West,270,7.4,7.6,17,0.00,,---,0.29,VWS V14.01,2013-04-20 22:05:00,
2013-04-20 18:10:00,55.4,11.3,30.09,WNW,292,8.1,15.9,17,0.00,,---,0.29,VWS V14.01,2013-04-20 22:10:00,
2013-04-20 18:15:00,55.8,11.6,30.09,West,270,10.1,12.5,17,0.00,,---,0.29,VWS V14.01,2013-04-20 22:15:00,
2013-04-20 18:20:00,55.4,11.3,30.09,North,0,6.0,12.5,17,0.00,,---,0.29,VWS V14.01,2013-04-20 22:20:00,
2013-04-20 18:26:00,55.2,12.5,30.09,WNW,292,2.7,3.4,18,0.00,,---,0.29,VWS V14.01,2013-04-20 22:26:00,
2013-04-20 18:30:00,55.2,12.5,30.09,WNW,292,1.6,13.2,18,0.00,,---,0.29,VWS V14.01,2013-04-20 22:30:00,
2013-04-20 18:31:00,55.0,12.3,30.09,NW,315,4.0,12.3,18,0.00,,---,0.29,VWS V14.01,2013-04-20 22:31:00,
2013-04-20 18:36:00,55.0,12.3,30.09,South,180,4.3,6.9,18,0.00,,---,0.29,VWS V14.01,2013-04-20 22:36:00,
2013-04-20 18:40:00,54.9,12.2,30.09,NW,315,5.6,14.1,18,0.00,,---,0.29,VWS V14.01,2013-04-20 22:40:00,
2013-04-20 18:41:00,55.0,12.3,30.09,NW,315,4.9,7.2,18,0.00,,---,0.29,VWS V14.01,2013-04-20 22:41:00,
2013-04-20 18:46:00,54.7,12.0,30.09,NW,315,5.6,10.1,18,0.00,,---,0.29,VWS V14.01,2013-04-20 22:46:00,
2013-04-20 18:50:00,54.9,12.2,30.09,West,270,5.4,7.2,18,0.00,,---,0.29,VWS V14.01,2013-04-20 22:50:00,
2013-04-20 18:51:00,54.1,11.6,30.09,WNW,292,4.0,17.7,18,0.00,,---,0.29,VWS V14.01,2013-04-20 22:51:00,
2013-04-20 18:56:00,54.1,11.6,30.09,WNW,292,7.6,7.6,18,0.00,,---,0.29,VWS V14.01,2013-04-20 22:56:00,
2013-04-20 19:00:00,54.3,11.7,30.09,North,0,3.6,17.7,18,0.00,,---,0.29,VWS V14.01,2013-04-20 23:00:00,
2013-04-20 19:01:00,54.0,11.4,30.12,West,270,5.8,17.9,18,0.00,,---,0.29,VWS V14.01,2013-04-20 23:01:00,
2013-04-20 19:06:00,53.6,11.1,30.12,NNW,338,4.9,7.6,18,0.00,,---,0.29,VWS V14.01,2013-04-20 23:06:00,
2013-04-20 19:10:00,53.6,11.1,30.12,NW,315,6.0,17.9,18,0.00,,---,0.29,VWS V14.01,2013-04-20 23:10:00,
2013-04-20 19:11:00,53.2,10.9,30.12,West,270,3.4,13.9,18,0.00,,---,0.29,VWS V14.01,2013-04-20 23:11:00,
2013-04-20 19:16:00,53.1,10.7,30.15,North,0,6.3,12.8,18,0.00,,---,0.29,VWS V14.01,2013-04-20 23:16:00,
2013-04-20 19:20:00,53.1,10.7,30.15,SE,135,5.6,13.9,18,0.00,,---,0.29,VWS V14.01,2013-04-20 23:20:00,
2013-04-20 19:21:00,52.7,10.4,30.15,WNW,292,3.8,12.8,18,0.00,,---,0.29,VWS V14.01,2013-04-20 23:21:00,
2013-04-20 19:26:00,52.3,10.1,30.15,NNW,338,5.8,9.4,18,0.00,,---,0.29,VWS V14.01,2013-04-20 23:26:00,
2013-04-20 19:30:00,52.5,10.2,30.15,WNW,292,3.4,12.8,18,0.00,,---,0.29,VWS V14.01,2013-04-20 23:30:00,
2013-04-20 19:32:00,52.2,10.0,30.15,NW,315,9.6,10.7,18,0.00,,---,0.29,VWS V14.01,2013-04-20 23:32:00,
2013-04-20 19:37:00,52.0,9.8,30.15,WNW,292,6.3,10.7,18,0.00,,---,0.29,VWS V14.01,2013-04-20 23:37:00,
2013-04-20 19:40:00,52.2,10.0,30.15,NW,315,10.7,10.7,18,0.00,,---,0.29,VWS V14.01,2013-04-20 23:40:00,
2013-04-20 19:42:00,51.8,9.7,30.15,NNW,338,5.8,12.3,18,0.00,,---,0.29,VWS V14.01,2013-04-20 23:42:00,
2013-04-20 19:47:00,51.6,10.7,30.12,WSW,248,4.9,8.7,19,0.00,,---,0.29,VWS V14.01,2013-04-20 23:47:00,
2013-04-20 19:50:00,51.6,10.7,30.12,NW,315,7.6,12.3,19,0.00,,---,0.29,VWS V14.01,2013-04-20 23:50:00,
2013-04-20 19:52:00,51.4,10.6,30.12,NW,315,3.6,8.7,19,0.00,,---,0.29,VWS V14.01,2013-04-20 23:52:00,
2013-04-20 19:57:00,51.3,10.4,30.12,NW,315,2.7,8.1,19,0.00,,---,0.29,VWS V14.01,2013-04-20 23:57:00,
2013-04-20 20:00:00,51.3,10.4,30.12,WNW,292,8.1,8.7,19,0.00,,---,0.29,VWS V14.01,2013-04-21 00:00:00,
2013-04-20 20:02:00,51.1,10.3,30.15,West,270,2.9,8.1,19,0.00,,---,0.29,VWS V14.01,2013-04-21 00:02:00,
2013-04-20 20:07:00,50.9,10.1,30.15,NW,315,3.8,6.5,19,0.00,,---,0.29,VWS V14.01,2013-04-21 00:07:00,
2013-04-20 20:10:00,50.9,10.1,30.15,NW,315,3.6,8.1,19,0.00,,---,0.29,VWS V14.01,2013-04-21 00:10:00,
2013-04-20 20:12:00,50.7,10.0,30.15,WNW,292,6.0,8.5,19,0.00,,---,0.29,VWS V14.01,2013-04-21 00:12:00,
2013-04-20 20:17:00,50.5,9.8,30.18,WNW,292,2.7,5.6,19,0.00,,---,0.29,VWS V14.01,2013-04-21 00:17:00,
2013-04-20 20:20:00,50.7,10.0,30.18,NW,315,4.0,8.5,19,0.00,,---,0.29,VWS V14.01,2013-04-21 00:20:00,
2013-04-20 20:22:00,50.5,9.8,30.18,NW,315,6.0,13.4,19,0.00,,---,0.29,VWS V14.01,2013-04-21 00:22:00,
2013-04-20 20:27:00,50.5,9.8,30.18,NNW,338,3.1,7.6,19,0.00,,---,0.29,VWS V14.01,2013-04-21 00:27:00,
2013-04-20 20:30:00,50.5,9.8,30.18,NW,315,6.3,13.4,19,0.00,,---,0.29,VWS V14.01,2013-04-21 00:30:00,
2013-04-20 20:32:00,50.4,9.7,30.18,WNW,292,5.8,8.1,19,0.00,,---,0.29,VWS V14.01,2013-04-21 00:32:00,
2013-04-20 20:37:00,50.2,9.5,30.18,NW,315,5.8,8.5,19,0.00,,---,0.29,VWS V14.01,2013-04-21 00:37:00,
2013-04-20 20:40:00,50.2,9.5,30.18,NW,315,6.3,8.1,19,0.00,,---,0.29,VWS V14.01,2013-04-21 00:40:00,
2013-04-20 20:43:00,50.0,9.4,30.18,NW,315,10.7,13.0,19,0.00,,---,0.29,VWS V14.01,2013-04-21 00:43:00,
2013-04-20 20:48:00,50.0,9.4,30.21,WNW,292,7.8,12.8,19,0.00,,---,0.29,VWS V14.01,2013-04-21 00:48:00,
2013-04-20 20:50:00,50.0,9.4,30.21,WNW,292,4.5,13.0,19,0.00,,---,0.29,VWS V14.01,2013-04-21 00:50:00,
2013-04-20 20:53:00,49.8,9.2,30.21,NW,315,4.0,12.8,19,0.00,,---,0.29,VWS V14.01,2013-04-21 00:53:00,
2013-04-20 20:58:00,49.8,9.2,30.21,WNW,292,7.2,10.1,19,0.00,,---,0.29,VWS V14.01,2013-04-21 00:58:00,
2013-04-20 21:00:00,49.6,9.1,30.21,NNW,338,5.8,12.8,19,0.00,,---,0.29,VWS V14.01,2013-04-21 01:00:00,
2013-04-20 21:03:00,49.5,8.9,30.21,NW,315,2.7,10.1,19,0.00,,---,0.29,VWS V14.01,2013-04-21 01:03:00,
2013-04-20 21:08:00,49.5,8.9,30.21,WNW,292,3.4,8.5,19,0.00,,---,0.29,VWS V14.01,2013-04-21 01:08:00,
2013-04-20 21:10:00,49.5,8.9,30.21,NNW,338,8.5,10.1,19,0.00,,---,0.29,VWS V14.01,2013-04-21 01:10:00,
2013-04-20 21:13:00,49.3,8.8,30.21,SW,225,5.8,8.7,19,0.00,,---,0.29,VWS V14.01,2013-04-21 01:13:00,
2013-04-20 21:18:00,49.1,8.6,30.21,WNW,292,3.4,5.8,19,0.00,,---,0.29,VWS V14.01,2013-04-21 01:18:00,
2013-04-20 21:20:00,49.3,8.8,30.21,SW,225,4.9,8.7,19,0.00,,---,0.29,VWS V14.01,2013-04-21 01:20:00,
2013-04-20 21:23:00,48.9,8.5,30.21,North,0,5.6,5.8,19,0.00,,---,0.29,VWS V14.01,2013-04-21 01:23:00,
2013-04-20 21:28:00,48.9,8.5,30.21,West,270,2.0,8.5,19,0.00,,---,0.29,VWS V14.01,2013-04-21 01:28:00,
2013-04-20 21:30:00,48.9,8.5,30.21,NW,315,5.6,6.3,19,0.00,,---,0.29,VWS V14.01,2013-04-21 01:30:00,
2013-04-20 21:33:00,48.7,8.3,30.24,NNW,338,4.3,8.5,19,0.00,,---,0.29,VWS V14.01,2013-04-21 01:33:00,
2013-04-20 21:38:00,48.6,8.2,30.24,NNW,338,4.9,6.0,19,0.00,,---,0.29,VWS V14.01,2013-04-21 01:38:00,
2013-04-20 21:40:00,48.7,8.3,30.24,NNE,22,6.0,8.5,19,0.00,,---,0.29,VWS V14.01,2013-04-21 01:40:00,
2013-04-20 21:50:00,48.6,8.2,30.27,NW,315,2.2,7.6,19,0.00,,---,0.29,VWS V14.01,2013-04-21 01:50:00,
2013-04-20 22:00:00,48.4,8.0,30.27,West,270,2.5,7.6,19,0.00,,---,0.29,VWS V14.01,2013-04-21 02:00:00,
2013-04-20 22:10:00,48.0,7.7,30.27,WSW,248,2.2,8.5,19,0.00,,---,0.29,VWS V14.01,2013-04-21 02:10:00,
2013-04-20 22:14:00,47.7,7.4,30.27,WSW,248,2.2,7.4,19,0.00,,---,0.29,VWS V14.01,2013-04-21 02:14:00,
2013-04-20 22:19:00,47.5,7.3,30.27,NW,315,4.0,7.6,19,0.00,,---,0.29,VWS V14.01,2013-04-21 02:19:00,
2013-04-20 22:20:00,47.7,7.4,30.27,NW,315,2.7,7.4,19,0.00,,---,0.29,VWS V14.01,2013-04-21 02:20:00,
2013-04-20 22:24:00,47.5,7.3,30.27,NW,315,4.3,7.6,19,0.00,,---,0.29,VWS V14.01,2013-04-21 02:24:00,
2013-04-20 22:29:00,47.5,7.3,30.27,WNW,292,3.1,7.6,19,0.00,,---,0.29,VWS V14.01,2013-04-21 02:29:00,
2013-04-20 22:30:00,47.5,7.3,30.27,WNW,292,7.6,7.6,19,0.00,,---,0.29,VWS V14.01,2013-04-21 02:30:00,
2013-04-20 22:34:00,47.3,7.1,30.27,WNW,292,3.4,7.6,19,0.00,,---,0.29,VWS V14.01,2013-04-21 02:34:00,
2013-04-20 22:39:00,47.3,7.1,30.27,NW,315,5.4,9.6,19,0.00,,---,0.29,VWS V14.01,2013-04-21 02:39:00,
2013-04-20 22:40:00,47.3,7.1,30.27,NW,315,4.3,7.6,19,0.00,,---,0.29,VWS V14.01,2013-04-21 02:40:00,
2013-04-20 22:45:00,47.3,7.1,30.27,NW,315,4.9,10.5,19,0.00,,---,0.29,VWS V14.01,2013-04-21 02:45:00,
2013-04-20 22:50:00,47.1,7.0,30.27,NW,315,7.6,7.6,19,0.00,,---,0.29,VWS V14.01,2013-04-21 02:50:00,
2013-04-20 22:55:00,46.9,6.8,30.27,WNW,292,3.8,7.6,19,0.00,,---,0.29,VWS V14.01,2013-04-21 02:55:00,
2013-04-20 23:00:00,46.8,6.7,30.24,West,270,2.9,4.0,19,0.00,,---,0.29,VWS V14.01,2013-04-21 03:00:00,
2013-04-20 23:05:00,46.8,6.7,30.24,NNE,22,4.0,4.0,19,0.00,,---,0.29,VWS V14.01,2013-04-21 03:05:00,
2013-04-20 23:10:00,46.6,6.5,30.24,NNW,338,5.6,5.8,19,0.00,,---,0.29,VWS V14.01,2013-04-21 03:10:00,
2013-04-20 23:15:00,46.4,6.4,30.27,NW,315,3.4,3.8,19,0.00,,---,0.29,VWS V14.01,2013-04-21 03:15:00,
2013-04-20 23:20:00,46.2,7.4,30.27,North,0,2.7,6.5,20,0.00,,---,0.29,VWS V14.01,2013-04-21 03:20:00,
2013-04-20 23:25:00,46.0,7.2,30.27,WNW,292,4.9,4.9,20,0.00,,---,0.29,VWS V14.01,2013-04-21 03:25:00,
2013-04-20 23:30:00,45.9,7.1,30.27,WNW,292,7.6,7.6,20,0.00,,---,0.29,VWS V14.01,2013-04-21 03:30:00,
2013-04-20 23:35:00,45.7,6.9,30.27,NW,315,9.0,9.0,20,0.00,,---,0.29,VWS V14.01,2013-04-21 03:35:00,
2013-04-20 23:40:00,45.7,6.9,30.27,WNW,292,3.6,9.0,20,0.00,,---,0.29,VWS V14.01,2013-04-21 03:40:00,
2013-04-20 23:45:00,45.7,6.9,30.30,NW,315,2.7,4.0,20,0.00,,---,0.29,VWS V14.01,2013-04-21 03:45:00,
2013-04-20 23:50:00,45.7,6.9,30.30,NW,315,4.0,9.0,20,0.00,,---,0.29,VWS V14.01,2013-04-21 03:50:00,
2013-04-20 23:51:00,45.5,6.8,30.30,NW,315,3.1,10.5,20,0.00,,---,0.29,VWS V14.01,2013-04-21 03:51:00,
2013-04-20 23:56:00,45.3,6.6,30.30,North,0,2.7,10.5,20,0.00,,---,0.00,VWS V14.01,2013-04-21 03:56:00,